This is the latest recevied weather packets stored in our database for station/object DH4SBM. If no packets are shown the sender has not sent any weather packets the latest 10 day(s).
| Time | Temp. | Humidity | Pressure | Rain* | Wind** | Luminosity | Snow |
|---|---|---|---|---|---|---|---|
| 1777493140 | 13.33° C | 36% | 1025.4 hPa | 0 mm | - | 0 W/m² | - |
| 1777492540 | 13.33° C | 36% | 1025.2 hPa | 0 mm | - | 0 W/m² | - |
| 1777491942 | 13.89° C | 36% | 1025.3 hPa | 0 mm | - | 0 W/m² | - |
| 1777491342 | 13.89° C | 35% | 1025.1 hPa | 0 mm | - | 0 W/m² | - |
| 1777490742 | 13.89° C | 34% | 1025 hPa | 0 mm | - | 0 W/m² | - |
| 1777490142 | 14.44° C | 34% | 1024.9 hPa | 0 mm | - | 0 W/m² | - |
| 1777489542 | 14.44° C | 33% | 1024.7 hPa | 0 mm | - | 0 W/m² | - |
| 1777488942 | 15° C | 33% | 1024.7 hPa | 0 mm | - | 0 W/m² | - |
| 1777488342 | 15° C | 32% | 1024.5 hPa | 0 mm | - | 0 W/m² | - |
| 1777488066 | 15° C | 32% | 1024.5 hPa | 0 mm | - | 0 W/m² | - |
| 1777487466 | 15.56° C | 32% | 1024.3 hPa | 0 mm | - | 7 W/m² | - |
| 1777486865 | 15.56° C | 31% | 1024.2 hPa | 0 mm | - | 16 W/m² | - |
| 1777486266 | 16.11° C | 31% | 1024.1 hPa | 0 mm | - | 30 W/m² | - |
| 1777485666 | 16.11° C | 30% | 1024 hPa | 0 mm | - | 44 W/m² | - |
| 1777485066 | 16.67° C | 30% | 1023.9 hPa | 0 mm | - | 58 W/m² | - |
| 1777484465 | 16.67° C | 29% | 1023.9 hPa | 0 mm | - | 76 W/m² | - |
| 1777483865 | 16.67° C | 28% | 1023.7 hPa | 0 mm | - | 93 W/m² | - |
| 1777483265 | 17.22° C | 28% | 1023.6 hPa | 0 mm | - | 114 W/m² | - |
| 1777482665 | 17.22° C | 29% | 1023.6 hPa | 0 mm | - | 137 W/m² | - |
| 1777482065 | 17.22° C | 28% | 1023.6 hPa | 0 mm | - | 160 W/m² | - |
| 1777481466 | 17.78° C | 27% | 1023.5 hPa | 0 mm | - | 185 W/m² | - |
| 1777480865 | 17.78° C | 28% | 1023.5 hPa | 0 mm | - | 211 W/m² | - |
| 1777480703 | 17.78° C | 27% | 1023.5 hPa | 0 mm | - | 227 W/m² | - |
| 1777480103 | 18.33° C | 26% | 1023.4 hPa | 0 mm | - | 251 W/m² | - |
| 1777479503 | 17.78° C | 27% | 1023.3 hPa | 0 mm | - | 278 W/m² | - |
* Rain latest hour (hover to see other rain measurements)
** Current wind speed in m/s (hover to see current wind gust speed)